This is the latest recevied weather packets stored in our database for station/object K4VEB. If no packets are shown the sender has not sent any weather packets the latest 10 day(s).
| Time | Temp. | Humidity | Pressure | Rain* | Wind** | Luminosity | Snow |
|---|---|---|---|---|---|---|---|
| 1777759866 | 21.67° C | 92% | 1009.8 hPa | 0 mm | - | 81 W/m² | - |
| 1777759562 | 21.67° C | 92% | 1009.7 hPa | 0 mm | - | 75 W/m² | - |
| 1777759258 | 21.67° C | 92% | 1009.5 hPa | 0 mm | - | 60 W/m² | - |
| 1777758955 | 21.67° C | 93% | 1009.5 hPa | 0 mm | - | 50 W/m² | - |
| 1777758652 | 21.67° C | 93% | 1009.2 hPa | 0 mm | - | 54 W/m² | - |
| 1777758349 | 21.67° C | 93% | 1009.2 hPa | 0 mm | - | 55 W/m² | - |
| 1777758047 | 21.11° C | 93% | 1009.7 hPa | 0 mm | - | 59 W/m² | - |
| 1777757743 | 21.11° C | 93% | 1009.6 hPa | 0 mm | - | 70 W/m² | - |
| 1777757441 | 21.11° C | 93% | 1009.9 hPa | 0 mm | - | 75 W/m² | - |
| 1777757140 | 21.11° C | 93% | 1009.9 hPa | 0 mm | - | 80 W/m² | - |
| 1777756837 | 21.11° C | 93% | 1009.5 hPa | 0 mm | - | 61 W/m² | - |
| 1777756532 | 21.11° C | 93% | 1009.3 hPa | 0 mm | - | 69 W/m² | - |
| 1777756230 | 21.11° C | 94% | 1009.6 hPa | 0 mm | - | 77 W/m² | - |
| 1777755927 | 21.67° C | 94% | 1009.8 hPa | 0 mm | - | 110 W/m² | - |
| 1777755624 | 21.11° C | 94% | 1009.8 hPa | 0 mm | - | 91 W/m² | - |
| 1777755321 | 21.11° C | 94% | 1009.7 hPa | 0 mm | - | 141 W/m² | - |
| 1777755018 | 21.11° C | 94% | 1009.5 hPa | 0 mm | - | 148 W/m² | - |
| 1777754715 | 21.11° C | 94% | 1009.7 hPa | 0 mm | - | 146 W/m² | - |
| 1777754413 | 21.11° C | 94% | 1009.6 hPa | 0 mm | - | 191 W/m² | - |
| 1777754109 | 21.11° C | 94% | 1009.5 hPa | 0 mm | - | 149 W/m² | - |
| 1777753806 | 21.11° C | 94% | 1009.5 hPa | 0 mm | - | 107 W/m² | - |
| 1777753502 | 20.56° C | 94% | 1009.4 hPa | 0 mm | - | 133 W/m² | - |
| 1777753201 | 20.56° C | 94% | 1009.4 hPa | 0 mm | - | 183 W/m² | - |
| 1777752896 | 20.56° C | 94% | 1009.5 hPa | 0 mm | - | 194 W/m² | - |
| 1777752593 | 20.56° C | 94% | 1009.7 hPa | 1.78 mm | - | 105 W/m² | - |
* Rain latest hour (hover to see other rain measurements)
** Current wind speed in m/s (hover to see current wind gust speed)